Time,TemperatureF,DewpointF,PressureIn,WindDirection,WindDirectionDegrees,WindSpeedMPH,WindSpeedGustMPH,Humidity,HourlyPrecipIn,Conditions,Clouds,dailyrainin,SoftwareType,DateUTC
2013-09-12 00:01:00,69.5,68.3,30.07,SE,139,0.0,0.0,96,0.00,,FEW055,0.00,VWS V14.01,2013-09-12 04:01:00,
2013-09-12 00:06:00,69.6,68.4,30.07,SE,139,0.0,0.0,96,0.00,,FEW055,0.00,VWS V14.01,2013-09-12 04:06:00,
2013-09-12 00:11:00,69.8,68.6,30.07,SE,139,0.0,0.0,96,0.00,,FEW055,0.00,VWS V14.01,2013-09-12 04:11:00,
2013-09-12 00:16:00,70.0,68.5,30.06,SE,139,0.0,0.0,95,0.00,,FEW055,0.00,VWS V14.01,2013-09-12 04:16:00,
2013-09-12 00:26:00,70.6,68.8,30.06,SE,135,0.0,1.0,94,0.00,,FEW055,0.00,VWS V14.01,2013-09-12 04:26:00,
2013-09-12 00:31:00,70.7,68.6,30.06,SE,135,0.0,1.0,93,0.00,,FEW055,0.00,VWS V14.01,2013-09-12 04:31:00,
2013-09-12 00:36:00,70.9,68.8,30.06,SE,135,0.0,0.0,93,0.00,,FEW055,0.00,VWS V14.01,2013-09-12 04:36:00,
2013-09-12 00:41:00,70.8,68.4,30.06,SE,135,0.0,1.0,92,0.00,,FEW055,0.00,VWS V14.01,2013-09-12 04:41:00,
2013-09-12 00:46:00,70.6,68.5,30.06,SE,135,0.0,0.0,93,0.00,,FEW055,0.00,VWS V14.01,2013-09-12 04:46:00,
2013-09-12 00:51:00,70.6,68.5,30.06,SE,135,0.0,0.0,93,0.00,,FEW055,0.00,VWS V14.01,2013-09-12 04:51:00,
2013-09-12 00:56:00,70.4,68.3,30.06,SE,135,0.0,0.0,93,0.00,,SCT075,0.00,VWS V14.01,2013-09-12 04:56:00,
2013-09-12 01:01:00,70.2,68.4,30.06,SE,135,0.0,0.0,94,0.00,,SCT075,0.00,VWS V14.01,2013-09-12 05:01:00,
2013-09-12 01:06:00,70.1,68.3,30.06,SE,135,0.0,0.0,94,0.00,,SCT075,0.00,VWS V14.01,2013-09-12 05:06:00,
2013-09-12 01:11:00,70.2,68.4,30.05,SE,135,0.0,0.0,94,0.00,,SCT075,0.00,VWS V14.01,2013-09-12 05:11:00,
2013-09-12 01:16:00,70.1,68.3,30.05,SE,135,0.0,0.0,94,0.00,,SCT075,0.00,VWS V14.01,2013-09-12 05:16:00,
2013-09-12 01:21:00,70.2,68.4,30.05,SE,135,0.0,0.0,94,0.00,,SCT075,0.00,VWS V14.01,2013-09-12 05:21:00,
2013-09-12 01:26:00,70.1,68.3,30.05,SE,135,0.0,0.0,94,0.00,,SCT075,0.00,VWS V14.01,2013-09-12 05:26:00,
2013-09-12 01:31:00,70.3,68.2,30.05,SE,135,0.0,0.0,93,0.00,,SCT075,0.00,VWS V14.01,2013-09-12 05:31:00,
2013-09-12 01:36:00,70.6,68.2,30.05,SE,135,0.0,1.0,92,0.00,,SCT075,0.00,VWS V14.01,2013-09-12 05:36:00,
2013-09-12 01:41:00,71.1,68.3,30.04,SE,135,0.0,0.0,91,0.00,,SCT075,0.00,VWS V14.01,2013-09-12 05:41:00,
2013-09-12 01:46:00,71.2,68.4,30.04,SE,135,0.0,0.0,91,0.00,,SCT075,0.00,VWS V14.01,2013-09-12 05:46:00,
2013-09-12 01:51:00,71.0,68.2,30.04,SE,135,0.0,0.0,91,0.00,,SCT075,0.00,VWS V14.01,2013-09-12 05:51:00,
2013-09-12 01:56:00,70.8,68.4,30.04,SE,135,0.0,0.0,92,0.00,,FEW055,0.00,VWS V14.01,2013-09-12 05:56:00,
2013-09-12 02:01:00,70.6,68.2,30.04,SE,135,0.0,0.0,92,0.00,,FEW055,0.00,VWS V14.01,2013-09-12 06:01:00,
2013-09-12 02:06:00,70.5,68.1,30.03,SE,135,0.0,0.0,92,0.00,,FEW055,0.00,VWS V14.01,2013-09-12 06:06:00,
2013-09-12 02:11:00,70.3,68.2,30.03,SE,135,0.0,0.0,93,0.00,,FEW055,0.00,VWS V14.01,2013-09-12 06:11:00,
2013-09-12 02:16:00,70.1,68.0,30.03,SE,135,0.0,0.0,93,0.00,,FEW055,0.00,VWS V14.01,2013-09-12 06:16:00,
2013-09-12 02:21:00,70.2,68.1,30.03,SE,135,0.0,0.0,93,0.00,,FEW055,0.00,VWS V14.01,2013-09-12 06:21:00,
2013-09-12 02:26:00,70.3,67.9,30.03,SSE,156,0.0,0.0,92,0.00,,FEW055,0.00,VWS V14.01,2013-09-12 06:26:00,
2013-09-12 02:31:00,70.4,68.0,30.03,SE,125,0.0,1.0,92,0.00,,FEW055,0.00,VWS V14.01,2013-09-12 06:31:00,
2013-09-12 02:36:00,70.7,67.9,30.03,SSW,201,0.0,0.0,91,0.00,,FEW055,0.00,VWS V14.01,2013-09-12 06:36:00,
2013-09-12 02:41:00,71.0,68.2,30.03,East,96,0.0,1.0,91,0.00,,FEW055,0.00,VWS V14.01,2013-09-12 06:41:00,
2013-09-12 02:46:00,71.0,67.9,30.03,East,96,0.0,1.0,90,0.00,,FEW055,0.00,VWS V14.01,2013-09-12 06:46:00,
2013-09-12 02:51:00,71.0,67.9,30.03,SE,142,1.0,1.0,90,0.00,,FEW055,0.00,VWS V14.01,2013-09-12 06:51:00,
2013-09-12 02:56:00,71.1,68.0,30.03,East,97,0.0,2.0,90,0.00,,SCT050,0.00,VWS V14.01,2013-09-12 06:56:00,
2013-09-12 03:01:00,71.2,68.1,30.03,ESE,121,0.0,1.0,90,0.00,,SCT050,0.00,VWS V14.01,2013-09-12 07:01:00,
2013-09-12 03:11:00,71.3,68.2,30.03,East,90,2.0,2.0,90,0.00,,SCT050,0.00,VWS V14.01,2013-09-12 07:11:00,
2013-09-12 03:16:00,71.4,68.3,30.03,SSE,150,0.0,1.0,90,0.00,,SCT050,0.00,VWS V14.01,2013-09-12 07:16:00,
2013-09-12 03:21:00,71.4,68.3,30.02,West,266,0.0,0.0,90,0.00,,SCT050,0.00,VWS V14.01,2013-09-12 07:21:00,
2013-09-12 03:31:00,71.6,68.5,30.02,SW,229,0.0,0.0,90,0.00,,SCT050,0.00,VWS V14.01,2013-09-12 07:31:00,
2013-09-12 03:36:00,71.4,68.3,30.02,South,190,0.0,1.0,90,0.00,,SCT050,0.00,VWS V14.01,2013-09-12 07:36:00,
2013-09-12 03:41:00,71.3,68.2,30.02,South,190,0.0,0.0,90,0.00,,SCT050,0.00,VWS V14.01,2013-09-12 07:41:00,
2013-09-12 03:46:00,71.1,68.0,30.02,South,190,0.0,0.0,90,0.00,,SCT050,0.00,VWS V14.01,2013-09-12 07:46:00,
2013-09-12 03:51:00,70.9,68.2,30.02,SE,129,0.0,0.0,91,0.00,,SCT050,0.00,VWS V14.01,2013-09-12 07:51:00,
2013-09-12 03:56:00,70.6,67.8,30.02,SE,129,0.0,0.0,91,0.00,,BKN060,0.00,VWS V14.01,2013-09-12 07:56:00,
2013-09-12 04:01:00,70.4,68.0,30.01,SE,129,0.0,0.0,92,0.00,,BKN060,0.00,VWS V14.01,2013-09-12 08:01:00,
2013-09-12 04:06:00,69.9,67.5,30.01,SE,129,0.0,0.0,92,0.00,,BKN060,0.00,VWS V14.01,2013-09-12 08:06:00,
2013-09-12 04:11:00,69.6,67.5,30.01,SE,129,0.0,0.0,93,0.00,,BKN060,0.00,VWS V14.01,2013-09-12 08:11:00,
2013-09-12 04:21:00,69.1,67.3,30.01,SE,129,0.0,0.0,94,0.00,,BKN060,0.00,VWS V14.01,2013-09-12 08:21:00,
2013-09-12 04:26:00,68.8,67.0,30.01,SE,129,0.0,0.0,94,0.00,,BKN060,0.00,VWS V14.01,2013-09-12 08:26:00,
2013-09-12 04:31:00,68.5,67.0,30.01,SE,129,0.0,1.0,95,0.00,,BKN060,0.00,VWS V14.01,2013-09-12 08:31:00,
2013-09-12 04:36:00,68.3,66.8,30.01,SE,129,0.0,0.0,95,0.00,,BKN060,0.00,VWS V14.01,2013-09-12 08:36:00,
2013-09-12 04:41:00,68.2,67.0,30.01,SE,129,0.0,0.0,96,0.00,,BKN060,0.00,VWS V14.01,2013-09-12 08:41:00,
2013-09-12 04:46:00,68.1,66.9,30.01,SE,129,0.0,0.0,96,0.00,,BKN060,0.00,VWS V14.01,2013-09-12 08:46:00,
2013-09-12 04:51:00,67.9,66.7,30.01,SE,129,0.0,1.0,96,0.00,,BKN060,0.00,VWS V14.01,2013-09-12 08:51:00,
2013-09-12 04:56:00,67.7,66.5,30.01,SE,129,0.0,0.0,96,0.00,,SCT200,0.00,VWS V14.01,2013-09-12 08:56:00,
2013-09-12 05:01:00,67.7,66.5,30.01,SE,129,0.0,0.0,96,0.00,,SCT200,0.00,VWS V14.01,2013-09-12 09:01:00,
2013-09-12 05:06:00,67.6,66.4,30.01,SE,129,0.0,0.0,96,0.00,,SCT200,0.00,VWS V14.01,2013-09-12 09:06:00,
2013-09-12 05:11:00,67.6,66.4,30.01,SE,129,0.0,0.0,96,0.00,,SCT200,0.00,VWS V14.01,2013-09-12 09:11:00,
2013-09-12 05:16:00,67.5,66.6,30.01,SE,129,0.0,0.0,97,0.00,,SCT200,0.00,VWS V14.01,2013-09-12 09:16:00,
2013-09-12 05:21:00,67.5,66.6,30.01,SE,129,0.0,0.0,97,0.00,,SCT200,0.00,VWS V14.01,2013-09-12 09:21:00,
2013-09-12 05:26:00,67.5,66.6,30.01,SE,129,0.0,0.0,97,0.00,,SCT200,0.00,VWS V14.01,2013-09-12 09:26:00,
2013-09-12 05:31:00,67.5,66.6,30.01,SE,129,0.0,0.0,97,0.00,,SCT200,0.00,VWS V14.01,2013-09-12 09:31:00,
2013-09-12 05:36:00,67.5,66.6,30.01,SE,129,0.0,0.0,97,0.00,,SCT200,0.00,VWS V14.01,2013-09-12 09:36:00,
2013-09-12 05:41:00,67.5,66.6,30.01,SE,129,0.0,0.0,97,0.00,,SCT200,0.00,VWS V14.01,2013-09-12 09:41:00,
2013-09-12 05:46:00,67.6,66.7,30.01,SE,129,0.0,1.0,97,0.00,,SCT200,0.00,VWS V14.01,2013-09-12 09:46:00,
2013-09-12 05:51:00,68.0,67.1,30.01,SE,141,0.0,2.0,97,0.00,,SCT200,0.00,VWS V14.01,2013-09-12 09:51:00,
2013-09-12 05:56:00,68.4,67.8,30.01,ESE,106,0.0,2.0,98,0.00,,SCT200,0.00,VWS V14.01,2013-09-12 09:56:00,
2013-09-12 06:01:00,68.8,67.9,30.01,ESE,105,0.0,0.0,97,0.00,,SCT200,0.00,VWS V14.01,2013-09-12 10:01:00,
2013-09-12 06:06:00,68.9,68.0,30.02,ESE,105,0.0,1.0,97,0.00,,SCT200,0.00,VWS V14.01,2013-09-12 10:06:00,
2013-09-12 06:16:00,69.5,68.3,30.02,ESE,105,0.0,0.0,96,0.00,,SCT200,0.00,VWS V14.01,2013-09-12 10:16:00,
2013-09-12 06:21:00,69.8,68.3,30.01,ESE,105,0.0,1.0,95,0.00,,SCT200,0.00,VWS V14.01,2013-09-12 10:21:00,
2013-09-12 06:26:00,70.0,68.2,30.01,ESE,105,0.0,1.0,94,0.00,,SCT200,0.00,VWS V14.01,2013-09-12 10:26:00,
2013-09-12 06:31:00,70.2,68.4,30.01,East,93,0.0,1.0,94,0.00,,SCT200,0.00,VWS V14.01,2013-09-12 10:31:00,
2013-09-12 06:36:00,70.4,68.6,30.01,ESE,113,0.0,1.0,94,0.00,,SCT200,0.00,VWS V14.01,2013-09-12 10:36:00,
2013-09-12 06:41:00,70.5,68.4,30.01,ESE,113,0.0,0.0,93,0.00,,SCT200,0.00,VWS V14.01,2013-09-12 10:41:00,
2013-09-12 06:46:00,70.5,68.4,30.01,ESE,113,0.0,0.0,93,0.00,,SCT200,0.00,VWS V14.01,2013-09-12 10:46:00,
2013-09-12 06:51:00,70.3,68.2,30.01,ESE,113,0.0,0.0,93,0.00,,SCT200,0.00,VWS V14.01,2013-09-12 10:51:00,
2013-09-12 06:56:00,70.1,68.3,30.01,ESE,113,1.0,1.0,94,0.00,,SCT200,0.00,VWS V14.01,2013-09-12 10:56:00,
2013-09-12 07:01:00,70.1,68.3,30.01,ESE,113,0.0,1.0,94,0.00,,SCT200,0.00,VWS V14.01,2013-09-12 11:01:00,
2013-09-12 07:06:00,70.3,68.5,30.01,ESE,108,0.0,1.0,94,0.00,,SCT200,0.00,VWS V14.01,2013-09-12 11:06:00,
2013-09-12 07:11:00,70.4,68.6,30.01,ESE,108,0.0,0.0,94,0.00,,SCT200,0.00,VWS V14.01,2013-09-12 11:11:00,
2013-09-12 07:16:00,70.4,68.3,30.01,ESE,108,0.0,0.0,93,0.00,,SCT200,0.00,VWS V14.01,2013-09-12 11:16:00,
2013-09-12 07:21:00,70.3,68.5,30.01,ESE,108,0.0,0.0,94,0.00,,SCT200,0.00,VWS V14.01,2013-09-12 11:21:00,
2013-09-12 07:26:00,70.1,68.3,30.01,ESE,107,0.0,1.0,94,0.00,,SCT200,0.00,VWS V14.01,2013-09-12 11:26:00,
2013-09-12 07:31:00,70.1,68.3,30.01,ESE,107,0.0,0.0,94,0.00,,SCT200,0.00,VWS V14.01,2013-09-12 11:31:00,
2013-09-12 07:36:00,70.2,68.4,30.01,ESE,108,0.0,0.0,94,0.00,,SCT200,0.00,VWS V14.01,2013-09-12 11:36:00,
2013-09-12 07:41:00,70.3,68.5,30.00,ESE,109,0.0,0.0,94,0.00,,SCT200,0.00,VWS V14.01,2013-09-12 11:41:00,
2013-09-12 07:46:00,70.5,68.7,30.00,ESE,109,0.0,0.0,94,0.00,,SCT200,0.00,VWS V14.01,2013-09-12 11:46:00,
2013-09-12 07:51:00,70.6,68.8,30.00,ESE,109,0.0,1.0,94,0.00,,SCT200,0.00,VWS V14.01,2013-09-12 11:51:00,
2013-09-12 07:56:00,71.0,68.9,30.00,ESE,109,0.0,1.0,93,0.00,,BKN200,0.00,VWS V14.01,2013-09-12 11:56:00,
2013-09-12 08:01:00,71.3,68.9,30.00,ESE,109,0.0,1.0,92,0.00,,BKN200,0.00,VWS V14.01,2013-09-12 12:01:00,
2013-09-12 08:06:00,71.7,68.9,30.00,ENE,68,0.0,1.0,91,0.00,,BKN200,0.00,VWS V14.01,2013-09-12 12:06:00,
2013-09-12 08:11:00,72.0,69.2,30.00,SE,124,0.0,1.0,91,0.00,,BKN200,0.00,VWS V14.01,2013-09-12 12:11:00,
2013-09-12 08:16:00,72.4,69.3,30.00,ESE,108,0.0,1.0,90,0.00,,BKN200,0.00,VWS V14.01,2013-09-12 12:16:00,
2013-09-12 08:21:00,72.7,69.3,30.00,WSW,243,0.0,3.0,89,0.00,,BKN200,0.00,VWS V14.01,2013-09-12 12:21:00,
2013-09-12 08:26:00,73.0,69.6,29.99,West,264,2.0,2.0,89,0.00,,BKN200,0.00,VWS V14.01,2013-09-12 12:26:00,
2013-09-12 08:31:00,73.3,69.5,29.99,SE,140,0.0,3.0,88,0.00,,BKN200,0.00,VWS V14.01,2013-09-12 12:31:00,
2013-09-12 08:36:00,73.6,69.8,29.99,East,81,1.0,1.0,88,0.00,,BKN200,0.00,VWS V14.01,2013-09-12 12:36:00,
2013-09-12 08:41:00,73.9,69.8,29.99,West,278,1.0,3.0,87,0.00,,BKN200,0.00,VWS V14.01,2013-09-12 12:41:00,
2013-09-12 08:46:00,74.4,69.9,29.99,WSW,243,0.0,3.0,86,0.00,,BKN200,0.00,VWS V14.01,2013-09-12 12:46:00,
2013-09-12 08:51:00,74.7,69.9,29.99,West,264,2.0,4.0,85,0.00,,BKN200,0.00,VWS V14.01,2013-09-12 12:51:00,
2013-09-12 08:56:00,75.0,69.8,29.99,SSW,197,0.0,4.0,84,0.00,,SCT200,0.00,VWS V14.01,2013-09-12 12:56:00,
2013-09-12 09:01:00,75.4,70.2,29.99,WSW,255,2.0,4.0,84,0.00,,SCT200,0.00,VWS V14.01,2013-09-12 13:01:00,
2013-09-12 09:06:00,75.8,70.3,29.99,WSW,257,0.0,4.0,83,0.00,,SCT200,0.00,VWS V14.01,2013-09-12 13:06:00,
2013-09-12 09:11:00,76.2,70.3,29.99,West,270,1.0,2.0,82,0.00,,SCT200,0.00,VWS V14.01,2013-09-12 13:11:00,
2013-09-12 09:16:00,76.6,70.0,29.99,WSW,239,0.0,2.0,80,0.00,,SCT200,0.00,VWS V14.01,2013-09-12 13:16:00,
2013-09-12 09:21:00,77.0,70.0,29.99,SW,227,1.0,4.0,79,0.00,,SCT200,0.00,VWS V14.01,2013-09-12 13:21:00,
2013-09-12 09:26:00,77.5,70.1,29.99,WSW,255,0.0,3.0,78,0.00,,SCT200,0.00,VWS V14.01,2013-09-12 13:26:00,
2013-09-12 09:31:00,77.9,70.1,29.99,WSW,254,2.0,3.0,77,0.00,,SCT200,0.00,VWS V14.01,2013-09-12 13:31:00,
2013-09-12 09:36:00,78.4,70.2,29.99,West,278,3.0,5.0,76,0.00,,SCT200,0.00,VWS V14.01,2013-09-12 13:36:00,
2013-09-12 09:41:00,78.7,69.7,29.99,West,268,2.0,6.0,74,0.00,,SCT200,0.00,VWS V14.01,2013-09-12 13:41:00,
2013-09-12 09:46:00,79.1,69.7,29.98,West,266,2.0,6.0,73,0.00,,SCT200,0.00,VWS V14.01,2013-09-12 13:46:00,
2013-09-12 09:51:00,79.4,70.0,29.98,WSW,257,1.0,4.0,73,0.00,,SCT200,0.00,VWS V14.01,2013-09-12 13:51:00,
2013-09-12 09:56:00,79.9,70.1,29.98,West,259,6.0,7.0,72,0.00,,FEW200,0.00,VWS V14.01,2013-09-12 13:56:00,
2013-09-12 10:01:00,79.9,69.7,29.98,WSW,250,4.0,6.0,71,0.00,,FEW200,0.00,VWS V14.01,2013-09-12 14:01:00,
2013-09-12 10:06:00,80.0,70.2,29.98,WSW,240,3.0,4.0,72,0.00,,FEW200,0.00,VWS V14.01,2013-09-12 14:06:00,
2013-09-12 10:11:00,80.4,70.6,29.98,West,260,2.0,4.0,72,0.00,,FEW200,0.00,VWS V14.01,2013-09-12 14:11:00,
2013-09-12 10:16:00,80.7,70.0,29.98,SW,229,1.0,6.0,70,0.00,,FEW200,0.00,VWS V14.01,2013-09-12 14:16:00,
2013-09-12 10:21:00,80.9,70.2,29.98,West,269,2.0,5.0,70,0.00,,FEW200,0.00,VWS V14.01,2013-09-12 14:21:00,
2013-09-12 10:26:00,81.1,70.8,29.98,West,264,3.0,5.0,71,0.00,,FEW200,0.00,VWS V14.01,2013-09-12 14:26:00,
2013-09-12 10:31:00,81.1,70.8,29.98,West,280,4.0,5.0,71,0.00,,FEW200,0.00,VWS V14.01,2013-09-12 14:31:00,
2013-09-12 10:36:00,81.2,70.5,29.98,WSW,257,0.0,7.0,70,0.00,,FEW200,0.00,VWS V14.01,2013-09-12 14:36:00,
2013-09-12 10:41:00,81.5,71.2,29.97,WSW,247,0.0,1.0,71,0.00,,FEW200,0.00,VWS V14.01,2013-09-12 14:41:00,
2013-09-12 10:46:00,82.1,71.8,29.97,West,274,5.0,6.0,71,0.00,,FEW200,0.00,VWS V14.01,2013-09-12 14:46:00,
2013-09-12 10:51:00,82.0,70.8,29.97,WSW,250,5.0,7.0,69,0.00,,FEW200,0.00,VWS V14.01,2013-09-12 14:51:00,
2013-09-12 10:56:00,82.1,70.9,29.97,WNW,295,1.0,6.0,69,0.00,,FEW200,0.00,VWS V14.01,2013-09-12 14:56:00,
2013-09-12 11:01:00,82.9,71.7,29.97,WSW,243,0.0,3.0,69,0.00,,FEW200,0.00,VWS V14.01,2013-09-12 15:01:00,
2013-09-12 11:06:00,83.1,71.4,29.96,West,269,1.0,6.0,68,0.00,,FEW200,0.00,VWS V14.01,2013-09-12 15:06:00,
2013-09-12 11:11:00,83.3,71.6,29.96,West,262,1.0,5.0,68,0.00,,FEW200,0.00,VWS V14.01,2013-09-12 15:11:00,
2013-09-12 11:16:00,83.6,71.5,29.96,WSW,245,1.0,5.0,67,0.00,,FEW200,0.00,VWS V14.01,2013-09-12 15:16:00,
2013-09-12 11:21:00,83.8,72.1,29.96,WSW,257,3.0,4.0,68,0.00,,FEW200,0.00,VWS V14.01,2013-09-12 15:21:00,
2013-09-12 11:26:00,84.1,72.4,29.96,West,266,0.0,5.0,68,0.00,,FEW200,0.00,VWS V14.01,2013-09-12 15:26:00,
2013-09-12 11:31:00,84.7,73.0,29.96,West,268,0.0,4.0,68,0.00,,FEW200,0.00,VWS V14.01,2013-09-12 15:31:00,
2013-09-12 11:36:00,84.9,73.2,29.96,West,260,4.0,4.0,68,0.00,,FEW200,0.00,VWS V14.01,2013-09-12 15:36:00,
2013-09-12 11:41:00,85.0,72.4,29.96,South,172,1.0,4.0,66,0.00,,FEW200,0.00,VWS V14.01,2013-09-12 15:41:00,
2013-09-12 11:46:00,85.6,71.6,29.95,WSW,254,1.0,5.0,63,0.00,,FEW200,0.00,VWS V14.01,2013-09-12 15:46:00,
2013-09-12 11:51:00,86.0,73.3,29.95,West,272,5.0,7.0,66,0.00,,FEW200,0.00,VWS V14.01,2013-09-12 15:51:00,
2013-09-12 11:56:00,86.0,72.9,29.95,SW,222,2.0,5.0,65,0.00,,FEW200,0.00,VWS V14.01,2013-09-12 15:56:00,
2013-09-12 12:01:00,86.5,72.9,29.95,West,271,1.0,6.0,64,0.00,,FEW200,0.00,VWS V14.01,2013-09-12 16:01:00,
2013-09-12 12:06:00,86.5,72.4,29.95,WSW,257,0.0,5.0,63,0.00,,FEW200,0.00,VWS V14.01,2013-09-12 16:06:00,
2013-09-12 12:11:00,86.6,72.0,29.95,SSW,208,0.0,5.0,62,0.00,,FEW200,0.00,VWS V14.01,2013-09-12 16:11:00,
2013-09-12 12:16:00,87.0,72.9,29.95,East,88,1.0,4.0,63,0.00,,FEW200,0.00,VWS V14.01,2013-09-12 16:16:00,
2013-09-12 12:21:00,86.9,72.3,29.94,West,266,2.0,6.0,62,0.00,,FEW200,0.00,VWS V14.01,2013-09-12 16:21:00,
2013-09-12 12:26:00,87.1,72.0,29.94,ESE,111,2.0,7.0,61,0.00,,FEW200,0.00,VWS V14.01,2013-09-12 16:26:00,
2013-09-12 12:31:00,87.3,71.7,29.94,WSW,251,1.0,6.0,60,0.00,,FEW200,0.00,VWS V14.01,2013-09-12 16:31:00,
2013-09-12 12:36:00,87.2,73.1,29.93,WNW,282,4.0,8.0,63,0.00,,FEW200,0.00,VWS V14.01,2013-09-12 16:36:00,
2013-09-12 12:41:00,87.5,71.9,29.93,SW,234,0.0,6.0,60,0.00,,FEW200,0.00,VWS V14.01,2013-09-12 16:41:00,
2013-09-12 12:46:00,88.2,74.5,29.93,ESE,117,0.0,3.0,64,0.00,,FEW200,0.00,VWS V14.01,2013-09-12 16:46:00,
2013-09-12 12:51:00,89.3,74.1,29.93,WSW,252,1.0,3.0,61,0.00,,FEW200,0.00,VWS V14.01,2013-09-12 16:51:00,
2013-09-12 12:56:00,89.3,73.1,29.92,West,266,3.0,4.0,59,0.00,,SCT200,0.00,VWS V14.01,2013-09-12 16:56:00,
2013-09-12 13:01:00,88.6,72.9,29.92,WSW,257,1.0,5.0,60,0.00,,SCT200,0.00,VWS V14.01,2013-09-12 17:01:00,
2013-09-12 13:06:00,89.6,73.4,29.92,SE,127,2.0,5.0,59,0.00,,SCT200,0.00,VWS V14.01,2013-09-12 17:06:00,
2013-09-12 13:11:00,90.0,73.2,29.92,WSW,238,3.0,5.0,58,0.00,,SCT200,0.00,VWS V14.01,2013-09-12 17:11:00,
2013-09-12 13:16:00,89.4,73.2,29.92,East,98,4.0,5.0,59,0.00,,SCT200,0.00,VWS V14.01,2013-09-12 17:16:00,
2013-09-12 13:21:00,89.5,72.8,29.92,WSW,252,2.0,4.0,58,0.00,,SCT200,0.00,VWS V14.01,2013-09-12 17:21:00,
2013-09-12 13:26:00,90.1,73.3,29.92,East,89,3.0,3.0,58,0.00,,SCT200,0.00,VWS V14.01,2013-09-12 17:26:00,
2013-09-12 13:31:00,90.4,73.6,29.91,WSW,255,3.0,5.0,58,0.00,,SCT200,0.00,VWS V14.01,2013-09-12 17:31:00,
2013-09-12 13:36:00,90.3,73.5,29.91,WSW,243,2.0,5.0,58,0.00,,SCT200,0.00,VWS V14.01,2013-09-12 17:36:00,
2013-09-12 13:41:00,90.4,73.1,29.91,SW,236,0.0,5.0,57,0.00,,SCT200,0.00,VWS V14.01,2013-09-12 17:41:00,
2013-09-12 13:46:00,90.1,72.3,29.91,SE,131,2.0,7.0,56,0.00,,SCT200,0.00,VWS V14.01,2013-09-12 17:46:00,
2013-09-12 13:51:00,90.1,73.3,29.90,WSW,252,4.0,5.0,58,0.00,,SCT200,0.00,VWS V14.01,2013-09-12 17:51:00,
2013-09-12 13:56:00,89.9,73.2,29.90,WSW,256,4.0,6.0,58,0.00,,SCT200,0.00,VWS V14.01,2013-09-12 17:56:00,
2013-09-12 14:01:00,90.1,73.3,29.90,SW,232,0.0,4.0,58,0.00,,SCT200,0.00,VWS V14.01,2013-09-12 18:01:00,
2013-09-12 14:06:00,90.2,71.9,29.90,West,270,2.0,7.0,55,0.00,,SCT200,0.00,VWS V14.01,2013-09-12 18:06:00,
2013-09-12 14:11:00,90.0,72.7,29.89,South,189,2.0,6.0,57,0.00,,SCT200,0.00,VWS V14.01,2013-09-12 18:11:00,
2013-09-12 14:16:00,90.2,72.4,29.89,WSW,247,1.0,4.0,56,0.00,,SCT200,0.00,VWS V14.01,2013-09-12 18:16:00,
2013-09-12 14:21:00,90.5,72.1,29.89,WNW,283,3.0,4.0,55,0.00,,SCT200,0.00,VWS V14.01,2013-09-12 18:21:00,
2013-09-12 14:26:00,90.4,73.6,29.89,West,261,4.0,8.0,58,0.00,,SCT200,0.00,VWS V14.01,2013-09-12 18:26:00,
2013-09-12 14:31:00,90.2,72.9,29.88,WSW,246,1.0,6.0,57,0.00,,SCT200,0.00,VWS V14.01,2013-09-12 18:31:00,
2013-09-12 14:36:00,91.2,72.8,29.88,ESE,119,0.0,3.0,55,0.00,,SCT200,0.00,VWS V14.01,2013-09-12 18:36:00,
2013-09-12 14:41:00,90.7,72.3,29.88,East,101,4.0,7.0,55,0.00,,SCT200,0.00,VWS V14.01,2013-09-12 18:41:00,
2013-09-12 14:46:00,90.4,72.6,29.87,West,263,1.0,4.0,56,0.00,,SCT200,0.00,VWS V14.01,2013-09-12 18:46:00,
2013-09-12 14:51:00,91.0,73.1,29.87,West,268,3.0,4.0,56,0.00,,SCT200,0.00,VWS V14.01,2013-09-12 18:51:00,
2013-09-12 14:56:00,90.1,72.8,29.86,WSW,258,0.0,3.0,57,0.00,,SCT080,0.00,VWS V14.01,2013-09-12 18:56:00,
2013-09-12 15:01:00,90.7,72.9,29.86,WSW,245,1.0,3.0,56,0.00,,SCT080,0.00,VWS V14.01,2013-09-12 19:01:00,
2013-09-12 15:06:00,90.2,71.9,29.86,WSW,245,2.0,5.0,55,0.00,,SCT080,0.00,VWS V14.01,2013-09-12 19:06:00,
2013-09-12 15:11:00,89.7,72.4,29.86,WSW,257,3.0,4.0,57,0.00,,SCT080,0.00,VWS V14.01,2013-09-12 19:11:00,
2013-09-12 15:16:00,90.1,73.3,29.85,ESE,119,2.0,5.0,58,0.00,,SCT080,0.00,VWS V14.01,2013-09-12 19:16:00,
2013-09-12 15:21:00,90.1,71.8,29.84,SSE,148,1.0,5.0,55,0.00,,SCT080,0.00,VWS V14.01,2013-09-12 19:21:00,
2013-09-12 15:26:00,89.9,73.2,29.84,WSW,258,1.0,4.0,58,0.00,,SCT080,0.00,VWS V14.01,2013-09-12 19:26:00,
2013-09-12 15:31:00,90.0,72.7,29.84,SSE,160,2.0,3.0,57,0.00,,SCT080,0.00,VWS V14.01,2013-09-12 19:31:00,
2013-09-12 15:36:00,89.9,72.1,29.84,SW,233,2.0,7.0,56,0.00,,SCT080,0.00,VWS V14.01,2013-09-12 19:36:00,
2013-09-12 15:41:00,89.5,73.3,29.84,West,262,3.0,4.0,59,0.00,,SCT080,0.00,VWS V14.01,2013-09-12 19:41:00,
2013-09-12 15:46:00,89.7,73.0,29.83,WSW,243,2.0,5.0,58,0.00,,SCT080,0.00,VWS V14.01,2013-09-12 19:46:00,
2013-09-12 15:51:00,89.8,73.1,29.83,WSW,242,1.0,4.0,58,0.00,,SCT080,0.00,VWS V14.01,2013-09-12 19:51:00,
2013-09-12 15:56:00,90.2,72.9,29.83,SW,221,3.0,4.0,57,0.00,,BKN250,0.00,VWS V14.01,2013-09-12 19:56:00,
2013-09-12 16:01:00,90.1,72.8,29.83,SW,236,0.0,4.0,57,0.00,,BKN250,0.00,VWS V14.01,2013-09-12 20:01:00,
2013-09-12 16:06:00,90.4,72.6,29.82,SSW,195,0.0,5.0,56,0.00,,BKN250,0.00,VWS V14.01,2013-09-12 20:06:00,
2013-09-12 16:11:00,91.0,73.7,29.82,West,261,2.0,4.0,57,0.00,,BKN250,0.00,VWS V14.01,2013-09-12 20:11:00,
2013-09-12 16:16:00,91.2,73.3,29.82,WSW,250,1.0,4.0,56,0.00,,BKN250,0.00,VWS V14.01,2013-09-12 20:16:00,
2013-09-12 16:21:00,91.2,72.8,29.82,SSE,165,1.0,4.0,55,0.00,,BKN250,0.00,VWS V14.01,2013-09-12 20:21:00,
2013-09-12 16:26:00,91.3,72.9,29.82,WSW,238,0.0,4.0,55,0.00,,BKN250,0.00,VWS V14.01,2013-09-12 20:26:00,
2013-09-12 16:31:00,91.6,73.7,29.81,WNW,283,2.0,4.0,56,0.00,,BKN250,0.00,VWS V14.01,2013-09-12 20:31:00,
2013-09-12 16:36:00,91.4,73.0,29.81,ESE,121,1.0,5.0,55,0.00,,BKN250,0.00,VWS V14.01,2013-09-12 20:36:00,
2013-09-12 16:41:00,91.3,73.4,29.81,WSW,245,2.0,5.0,56,0.00,,BKN250,0.00,VWS V14.01,2013-09-12 20:41:00,
2013-09-12 16:46:00,91.3,72.3,29.81,SSE,168,2.0,5.0,54,0.00,,BKN250,0.00,VWS V14.01,2013-09-12 20:46:00,
2013-09-12 16:51:00,91.2,73.3,29.81,NW,315,0.0,4.0,56,0.00,,BKN250,0.00,VWS V14.01,2013-09-12 20:51:00,
2013-09-12 16:56:00,90.6,72.8,29.80,SW,221,2.0,5.0,56,0.00,,BKN250,0.00,VWS V14.01,2013-09-12 20:56:00,
2013-09-12 17:01:00,90.1,72.3,29.80,WSW,258,3.0,4.0,56,0.00,,BKN250,0.00,VWS V14.01,2013-09-12 21:01:00,
2013-09-12 17:06:00,89.3,72.6,29.80,SSW,206,2.0,4.0,58,0.00,,BKN250,0.00,VWS V14.01,2013-09-12 21:06:00,
2013-09-12 17:11:00,88.8,72.6,29.80,SE,129,0.0,2.0,59,0.00,,BKN250,0.00,VWS V14.01,2013-09-12 21:11:00,
2013-09-12 17:16:00,87.7,73.1,29.80,ENE,77,2.0,3.0,62,0.00,,BKN250,0.00,VWS V14.01,2013-09-12 21:16:00,
2013-09-12 17:21:00,87.0,72.9,29.80,ESE,105,1.0,2.0,63,0.00,,BKN250,0.00,VWS V14.01,2013-09-12 21:21:00,
2013-09-12 17:26:00,86.7,73.5,29.80,ESE,110,1.0,1.0,65,0.00,,BKN250,0.00,VWS V14.01,2013-09-12 21:26:00,
2013-09-12 17:31:00,86.6,73.0,29.80,ESE,108,0.0,2.0,64,0.00,,BKN250,0.00,VWS V14.01,2013-09-12 21:31:00,
2013-09-12 17:36:00,86.8,73.2,29.80,WSW,248,2.0,3.0,64,0.00,,BKN250,0.00,VWS V14.01,2013-09-12 21:36:00,
2013-09-12 17:41:00,86.8,73.6,29.80,WSW,256,1.0,4.0,65,0.00,,BKN250,0.00,VWS V14.01,2013-09-12 21:41:00,
2013-09-12 17:46:00,86.0,72.9,29.80,West,266,2.0,4.0,65,0.00,,BKN250,0.00,VWS V14.01,2013-09-12 21:46:00,
2013-09-12 17:51:00,85.6,72.9,29.80,SSW,198,1.0,5.0,66,0.00,,BKN250,0.00,VWS V14.01,2013-09-12 21:51:00,
2013-09-12 17:56:00,85.1,72.5,29.80,SW,215,0.0,5.0,66,0.00,,BKN250,0.00,VWS V14.01,2013-09-12 21:56:00,
2013-09-12 18:01:00,84.9,71.8,29.80,SSE,150,0.0,4.0,65,0.00,,BKN250,0.00,VWS V14.01,2013-09-12 22:01:00,
2013-09-12 18:06:00,84.8,71.7,29.80,SE,139,0.0,2.0,65,0.00,,BKN250,0.00,VWS V14.01,2013-09-12 22:06:00,
2013-09-12 18:11:00,84.8,71.7,29.80,WSW,257,0.0,2.0,65,0.00,,BKN250,0.00,VWS V14.01,2013-09-12 22:11:00,
2013-09-12 18:16:00,84.5,72.8,29.80,WNW,283,1.0,2.0,68,0.00,,BKN250,0.00,VWS V14.01,2013-09-12 22:16:00,
2013-09-12 18:21:00,83.6,72.8,29.81,West,262,0.0,3.0,70,0.00,,BKN250,0.00,VWS V14.01,2013-09-12 22:21:00,
2013-09-12 18:26:00,83.1,72.7,29.81,SW,236,0.0,3.0,71,0.00,,BKN250,0.00,VWS V14.01,2013-09-12 22:26:00,
2013-09-12 18:31:00,83.0,74.3,29.81,SW,236,0.0,0.0,75,0.00,,BKN250,0.00,VWS V14.01,2013-09-12 22:31:00,
2013-09-12 18:36:00,82.7,73.2,29.81,WSW,248,0.0,1.0,73,0.00,,BKN250,0.00,VWS V14.01,2013-09-12 22:36:00,
2013-09-12 18:41:00,82.7,74.0,29.81,WSW,248,0.0,1.0,75,0.00,,BKN250,0.00,VWS V14.01,2013-09-12 22:41:00,
2013-09-12 18:46:00,82.4,74.1,29.81,WSW,248,0.0,0.0,76,0.00,,BKN250,0.00,VWS V14.01,2013-09-12 22:46:00,
2013-09-12 18:51:00,81.9,73.6,29.81,WSW,244,0.0,1.0,76,0.00,,,0.00,VWS V14.01,2013-09-12 22:51:00,
2013-09-12 18:56:00,81.6,73.7,29.81,WSW,248,1.0,1.0,77,0.00,,,0.00,VWS V14.01,2013-09-12 22:56:00,
2013-09-12 19:01:00,81.5,73.6,29.81,WSW,255,0.0,1.0,77,0.00,,,0.00,VWS V14.01,2013-09-12 23:01:00,
2013-09-12 19:06:00,81.5,74.4,29.81,WSW,256,0.0,1.0,79,0.00,,,0.00,VWS V14.01,2013-09-12 23:06:00,
2013-09-12 19:11:00,81.2,74.4,29.80,WSW,256,0.0,0.0,80,0.00,,,0.00,VWS V14.01,2013-09-12 23:11:00,
2013-09-12 19:16:00,80.3,74.3,29.81,WSW,256,0.0,1.0,82,0.00,,,0.00,VWS V14.01,2013-09-12 23:16:00,
2013-09-12 19:21:00,79.8,74.5,29.80,WSW,256,0.0,0.0,84,0.00,,,0.00,VWS V14.01,2013-09-12 23:21:00,
2013-09-12 19:26:00,79.4,74.5,29.81,WSW,256,0.0,0.0,85,0.00,,BKN200,0.00,VWS V14.01,2013-09-12 23:26:00,
2013-09-12 19:31:00,79.2,74.3,29.81,WSW,256,0.0,0.0,85,0.00,,BKN200,0.00,VWS V14.01,2013-09-12 23:31:00,
2013-09-12 19:36:00,79.2,73.6,29.81,WSW,258,0.0,1.0,83,0.00,,BKN200,0.00,VWS V14.01,2013-09-12 23:36:00,
2013-09-12 19:41:00,79.8,73.1,29.81,West,268,0.0,2.0,80,0.00,,BKN200,0.00,VWS V14.01,2013-09-12 23:41:00,
2013-09-12 19:46:00,80.1,74.8,29.81,West,268,0.0,0.0,84,0.00,,BKN200,0.00,VWS V14.01,2013-09-12 23:46:00,
2013-09-12 19:51:00,79.5,74.6,29.81,West,268,0.0,1.0,85,0.00,,BKN200,0.00,VWS V14.01,2013-09-12 23:51:00,
2013-09-12 19:56:00,78.6,74.4,29.81,West,268,0.0,0.0,87,0.00,,-RA,0.00,VWS V14.01,2013-09-12 23:56:00,
2013-09-12 20:01:00,78.0,74.2,29.81,West,268,0.0,0.0,88,0.00,,-RA,0.00,VWS V14.01,2013-09-13 00:01:00,
2013-09-12 20:06:00,77.7,73.9,29.82,West,268,0.0,0.0,88,0.00,,-RA,0.00,VWS V14.01,2013-09-13 00:06:00,
2013-09-12 20:11:00,77.6,73.4,29.82,West,262,2.0,2.0,87,0.00,,-RA,0.00,VWS V14.01,2013-09-13 00:11:00,
2013-09-12 20:16:00,78.7,73.5,29.82,West,276,1.0,4.0,84,0.00,,-RA,0.00,VWS V14.01,2013-09-13 00:16:00,
2013-09-12 20:21:00,79.1,73.5,29.82,ESE,117,0.0,2.0,83,0.00,,-RA,0.00,VWS V14.01,2013-09-13 00:21:00,
2013-09-12 20:26:00,79.1,73.5,29.82,SW,214,0.0,1.0,83,0.00,,-RA,0.00,VWS V14.01,2013-09-13 00:26:00,
2013-09-12 20:31:00,79.1,73.1,29.81,SW,214,0.0,1.0,82,0.00,,-RA,0.00,VWS V14.01,2013-09-13 00:31:00,
2013-09-12 20:36:00,78.7,73.5,29.81,ESE,119,2.0,2.0,84,0.00,,-RA,0.00,VWS V14.01,2013-09-13 00:36:00,
2013-09-12 20:41:00,78.4,72.4,29.81,ESE,108,1.0,4.0,82,0.00,,-RA,0.00,VWS V14.01,2013-09-13 00:41:00,
2013-09-12 20:46:00,78.3,72.0,29.81,SE,129,1.0,2.0,81,0.00,,-RA,0.00,VWS V14.01,2013-09-13 00:46:00,
2013-09-12 20:51:00,78.2,71.5,29.82,SE,143,0.0,2.0,80,0.00,,-RA,0.00,VWS V14.01,2013-09-13 00:51:00,
2013-09-12 20:56:00,78.1,71.4,29.81,South,189,0.0,4.0,80,0.00,,SCT200,0.00,VWS V14.01,2013-09-13 00:56:00,
2013-09-12 21:01:00,77.8,71.5,29.81,ESE,116,1.0,5.0,81,0.00,,SCT200,0.00,VWS V14.01,2013-09-13 01:01:00,
2013-09-12 21:06:00,77.3,71.4,29.81,ESE,122,1.0,5.0,82,0.00,,SCT200,0.00,VWS V14.01,2013-09-13 01:06:00,
2013-09-12 21:11:00,77.0,71.4,29.82,SSW,203,0.0,4.0,83,0.00,,SCT200,0.00,VWS V14.01,2013-09-13 01:11:00,
2013-09-12 21:16:00,76.9,71.3,29.82,SW,234,0.0,3.0,83,0.00,,SCT200,0.00,VWS V14.01,2013-09-13 01:16:00,
2013-09-12 21:21:00,76.8,71.2,29.82,SSW,198,0.0,1.0,83,0.00,,SCT200,0.00,VWS V14.01,2013-09-13 01:21:00,
2013-09-12 21:26:00,76.7,71.5,29.82,ESE,106,1.0,3.0,84,0.00,,SCT200,0.00,VWS V14.01,2013-09-13 01:26:00,
2013-09-12 21:36:00,76.3,71.5,29.82,West,267,0.0,1.0,85,0.00,,SCT200,0.00,VWS V14.01,2013-09-13 01:36:00,
2013-09-12 21:41:00,76.2,71.4,29.81,West,264,1.0,2.0,85,0.00,,SCT200,0.00,VWS V14.01,2013-09-13 01:41:00,
2013-09-12 21:46:00,76.0,71.5,29.81,West,264,0.0,1.0,86,0.00,,SCT200,0.00,VWS V14.01,2013-09-13 01:46:00,
2013-09-12 21:51:00,75.9,71.4,29.81,West,264,0.0,0.0,86,0.00,,SCT200,0.00,VWS V14.01,2013-09-13 01:51:00,
2013-09-12 21:56:00,75.8,71.3,29.81,WSW,245,0.0,0.0,86,0.00,,BKN250,0.00,VWS V14.01,2013-09-13 01:56:00,
2013-09-12 22:01:00,75.6,71.5,29.81,WSW,245,0.0,0.0,87,0.00,,BKN250,0.00,VWS V14.01,2013-09-13 02:01:00,
2013-09-12 22:06:00,75.4,71.3,29.81,WSW,245,0.0,0.0,87,0.00,,BKN250,0.00,VWS V14.01,2013-09-13 02:06:00,
2013-09-12 22:11:00,75.2,71.4,29.80,SSW,194,0.0,0.0,88,0.00,,BKN250,0.00,VWS V14.01,2013-09-13 02:11:00,
2013-09-12 22:16:00,75.1,71.3,29.80,South,177,0.0,0.0,88,0.00,,BKN250,0.00,VWS V14.01,2013-09-13 02:16:00,
2013-09-12 22:21:00,75.1,71.3,29.80,South,185,0.0,0.0,88,0.00,,BKN250,0.00,VWS V14.01,2013-09-13 02:21:00,
2013-09-12 22:26:00,75.0,71.2,29.80,South,185,0.0,0.0,88,0.00,,BKN250,0.00,VWS V14.01,2013-09-13 02:26:00,
2013-09-12 22:31:00,74.8,71.0,29.80,South,185,0.0,0.0,88,0.00,,BKN250,0.00,VWS V14.01,2013-09-13 02:31:00,
2013-09-12 22:36:00,74.8,71.0,29.80,South,185,0.0,0.0,88,0.00,,BKN250,0.00,VWS V14.01,2013-09-13 02:36:00,
2013-09-12 22:41:00,74.5,71.1,29.80,South,185,0.0,0.0,89,0.00,,BKN250,0.00,VWS V14.01,2013-09-13 02:41:00,
2013-09-12 22:46:00,74.2,71.1,29.80,South,185,0.0,0.0,90,0.00,,BKN250,0.00,VWS V14.01,2013-09-13 02:46:00,
2013-09-12 22:51:00,73.9,70.8,29.80,South,185,0.0,0.0,90,0.00,,BKN250,0.00,VWS V14.01,2013-09-13 02:51:00,
2013-09-12 22:56:00,73.7,70.9,29.80,West,264,0.0,0.0,91,0.00,,BKN250,0.00,VWS V14.01,2013-09-13 02:56:00,
2013-09-12 23:01:00,73.9,70.8,29.80,West,264,0.0,0.0,90,0.00,,BKN250,0.00,VWS V14.01,2013-09-13 03:01:00,
2013-09-12 23:06:00,74.0,70.9,29.80,West,264,0.0,0.0,90,0.00,,BKN250,0.00,VWS V14.01,2013-09-13 03:06:00,
2013-09-12 23:11:00,73.9,70.8,29.80,West,264,0.0,0.0,90,0.00,,BKN250,0.00,VWS V14.01,2013-09-13 03:11:00,
2013-09-12 23:16:00,73.5,70.7,29.80,West,272,0.0,0.0,91,0.00,,BKN250,0.00,VWS V14.01,2013-09-13 03:16:00,
2013-09-12 23:21:00,73.2,70.7,29.80,West,272,0.0,0.0,92,0.00,,BKN250,0.00,VWS V14.01,2013-09-13 03:21:00,
2013-09-12 23:26:00,73.0,70.5,29.80,West,272,0.0,0.0,92,0.00,,BKN250,0.00,VWS V14.01,2013-09-13 03:26:00,
2013-09-12 23:31:00,72.8,70.7,29.80,West,272,0.0,0.0,93,0.00,,BKN250,0.00,VWS V14.01,2013-09-13 03:31:00,
2013-09-12 23:36:00,72.6,70.5,29.79,West,272,0.0,0.0,93,0.00,,BKN250,0.00,VWS V14.01,2013-09-13 03:36:00,
2013-09-12 23:46:00,72.3,70.2,29.79,West,272,0.0,0.0,93,0.00,,BKN250,0.00,VWS V14.01,2013-09-13 03:46:00,
2013-09-12 23:51:00,72.2,70.4,29.79,West,272,0.0,0.0,94,0.00,,BKN250,0.00,VWS V14.01,2013-09-13 03:51:00,
2013-09-12 23:56:00,72.0,70.2,29.79,West,272,0.0,0.0,94,0.00,,BKN250,0.00,VWS V14.01,2013-09-13 03:56:00,